User: anonymous   Login
Location: Unspecified
(0.0000°N, 0.0000°E)
Time: 07:16:20
(UTC+01:00)
Language:

H-2A R/B - Orbit

View from above orbital plane
View from above orbital plane
View from above satellite
View from above satellite

Ground track
Ground track

The orbit data is extracted from the following two-line orbital elements,

1 26899U 01038B   14303.20508222  .00002021  00000-0  72047-3 0   672
2 26899 028.0408 093.2740 7150537 275.7312 313.2237 02.44004384112822
Epoch (UTC): 30 October 2014 04:55:19
Eccentricity: 0.7150537
inclination: 28.0408°
perigee height: 263 km
apogee height: 33593 km
right ascension of ascending node: 93.2740°
argument of perigee: 275.7312°
revolutions per day: 2.44004384
mean anomaly at epoch: 313.2237°
orbit number at epoch: 11282

The dashed part of the orbit path shows where the satellite is in the earth's shadow,  

DLR